Alba, TX

7:08 PM CST on February 24, 2017 (GMT -0600)
Mineola

Weather History for KJDD - February, 2014

Change the Weather History Date:

Wednesday, February 19, 2014

  Actual Average (KTYR) Record (KTYR)
Temperature  
Mean Temperature 68 °F -  
Max Temperature 73 °F 60 °F 87 °F (1986)
Min Temperature 62 °F 41 °F 14 °F (1978)
Cooling Degree Days 2    
Growing Degree Days 18 (Base 50)    
Moisture  
Dew Point 62 °F    
Average Humidity 81    
Maximum Humidity 100    
Minimum Humidity 61    
Precipitation  
Precipitation 0.00 in - - ()
Sea Level Pressure  
Sea Level Pressure 29.86 in    
Wind  
Wind Speed 7 mph (South)    
Max Wind Speed 15 mph    
Max Gust Speed 25 mph    
Visibility 9 miles    
Events      
Averages and records for this station are not official NWS values.
T = Trace of Precipitation, MM = Missing Value Source: NWS Daily Summary

Daily Weather History Graph

Daily Weather History Graph

Search for Another Location

Airport or City:

Trip Planner

Search our weather history database for the weather conditions in past years. The results will help you decide how hot, cold, wet, or windy it might be!

Date:

Astronomy

Feb. 19, 2014 Rise Set
Actual Time 7:00 AM CST 6:11 PM CST
Civil Twilight 6:35 AM CST 6:36 PM CST
Nautical Twilight 6:07 AM CST 7:04 PM CST
Astronomical Twilight 5:38 AM CST 7:33 PM CST
Moon 10:47 PM CST (2/19) 9:24 AM CST (2/19)
Length of Visible Light 12h 00m
Length of Day
11h 10m
Waning Gibbous, 79% of the Moon is Illuminated
Feb 19
Waning Gibbous
Feb 22
Last Quarter
Mar 1
New
Mar 8
First Quarter
Mar 16
Full

Hourly Weather History & Observations

Time (CST) Temp. Dew Point Humidity Pressure Visibility Wind Dir Wind Speed Gust Speed Precip Events Conditions
12:15 AM 66.2 °F 62.6 °F 88% 29.92 in 8.0 mi South 9.2 mph - N/A   Clear
12:35 AM 66.2 °F 62.6 °F 88% 29.93 in 8.0 mi SSW 9.2 mph - N/A   Clear
12:55 AM 66.2 °F 62.6 °F 88% 29.94 in 8.0 mi SSW 9.2 mph - N/A   Clear
1:15 AM 66.2 °F 62.6 °F 88% 29.94 in 8.0 mi South 5.8 mph - N/A   Clear
1:35 AM 66.2 °F 62.6 °F 88% 29.94 in 9.0 mi South 4.6 mph - N/A   Clear
1:55 AM 64.4 °F 62.6 °F 94% 29.93 in 9.0 mi South 5.8 mph - N/A   Clear
2:15 AM 64.4 °F 62.6 °F 94% 29.93 in 8.0 mi South 4.6 mph - N/A   Clear
2:35 AM 64.4 °F 62.6 °F 94% 29.93 in 9.0 mi South 5.8 mph - N/A   Clear
2:55 AM 64.4 °F 62.6 °F 94% 29.93 in 9.0 mi South 4.6 mph - N/A   Clear
3:15 AM 64.4 °F 62.6 °F 94% 29.93 in 8.0 mi South 4.6 mph - N/A   Clear
3:35 AM 64.4 °F 62.6 °F 94% 29.94 in 9.0 mi South 4.6 mph - N/A   Clear
3:55 AM 62.6 °F 62.6 °F 100% 29.94 in 9.0 mi South 3.5 mph - N/A   Clear
4:15 AM 62.6 °F 62.6 °F 100% 29.93 in 8.0 mi South 4.6 mph - N/A   Clear
4:35 AM 62.6 °F 62.6 °F 100% 29.93 in 8.0 mi South 3.5 mph - N/A   Clear
4:55 AM 62.6 °F 62.6 °F 100% 29.93 in 9.0 mi SSE 4.6 mph - N/A   Mostly Cloudy
5:15 AM 64.4 °F 62.6 °F 94% 29.94 in 7.0 mi South 4.6 mph - N/A   Overcast
5:35 AM 64.4 °F 62.6 °F 94% 29.94 in 7.0 mi South 5.8 mph - N/A   Overcast
5:55 AM 64.4 °F 62.6 °F 94% 29.94 in 6.0 mi South 3.5 mph - N/A   Overcast
6:15 AM 64.4 °F 62.6 °F 94% 29.94 in 6.0 mi SE 3.5 mph - N/A   Overcast
6:35 AM 62.6 °F 62.6 °F 100% 29.94 in 6.0 mi SE 3.5 mph - N/A   Overcast
6:55 AM 62.6 °F 62.6 °F 100% 29.94 in 7.0 mi Calm Calm - N/A   Overcast
7:15 AM 62.6 °F 62.6 °F 100% 29.94 in 5.0 mi SSE 3.5 mph - N/A   Overcast
7:35 AM 62.6 °F 62.6 °F 100% 29.94 in 5.0 mi SSE 5.8 mph - N/A   Overcast
7:55 AM 64.4 °F 62.6 °F 94% 29.95 in 6.0 mi SSE 6.9 mph - N/A   Overcast
8:15 AM 64.4 °F 62.6 °F 94% 29.95 in 5.0 mi SSE 3.5 mph - N/A   Overcast
8:35 AM 64.4 °F 62.6 °F 94% 29.95 in 7.0 mi SSE 5.8 mph - N/A   Overcast
8:55 AM 64.4 °F 62.6 °F 94% 29.96 in 6.0 mi South 5.8 mph - N/A   Overcast
9:15 AM 66.2 °F 62.6 °F 88% 29.96 in 7.0 mi South 6.9 mph - N/A   Overcast
9:35 AM 66.2 °F 62.6 °F 88% 29.96 in 7.0 mi South 9.2 mph - N/A   Overcast
9:55 AM 66.2 °F 62.6 °F 88% 29.96 in 7.0 mi South 8.1 mph - N/A   Overcast
10:15 AM 66.2 °F 62.6 °F 88% 29.96 in 8.0 mi South 8.1 mph - N/A   Overcast
10:35 AM 66.2 °F 62.6 °F 88% 29.96 in 8.0 mi SSE 9.2 mph - N/A   Overcast
10:55 AM 68.0 °F 62.6 °F 83% 29.96 in 9.0 mi South 6.9 mph - N/A   Overcast
11:15 AM 69.8 °F 62.6 °F 78% 29.94 in 8.0 mi SSE 9.2 mph - N/A   Overcast
11:35 AM 69.8 °F 62.6 °F 78% 29.93 in 9.0 mi South 8.1 mph - N/A   Overcast
11:55 AM 71.6 °F 62.6 °F 73% 29.92 in 9.0 mi South 10.4 mph 17.3 mph N/A   Mostly Cloudy
12:15 PM 71.6 °F 60.8 °F 69% 29.91 in 9.0 mi SSE 8.1 mph - N/A   Scattered Clouds
12:35 PM 71.6 °F 60.8 °F 69% 29.90 in 10.0 mi SSE 11.5 mph 17.3 mph N/A   Mostly Cloudy
12:55 PM 69.8 °F 60.8 °F 73% 29.88 in 8.0 mi SSE 9.2 mph 20.7 mph N/A   Overcast
1:15 PM 69.8 °F 60.8 °F 73% 29.87 in - South 9.2 mph 19.6 mph N/A   Overcast
1:35 PM 69.8 °F 60.8 °F 73% 29.86 in 9.0 mi South 11.5 mph 16.1 mph N/A   Overcast
1:55 PM 71.6 °F 60.8 °F 69% 29.85 in 9.0 mi South 9.2 mph 18.4 mph N/A   Overcast
2:15 PM 71.6 °F 60.8 °F 69% 29.84 in 10.0 mi South 10.4 mph 17.3 mph N/A   Overcast
2:35 PM 71.6 °F 60.8 °F 69% 29.84 in 10.0 mi South 9.2 mph 17.3 mph N/A   Overcast
2:55 PM 73.4 °F 60.8 °F 65% 29.83 in 10.0 mi SSW 10.4 mph 16.1 mph N/A   Overcast
3:15 PM 73.4 °F 60.8 °F 65% 29.82 in 10.0 mi South 5.8 mph - N/A   Overcast
3:35 PM 73.4 °F 59.0 °F 61% 29.81 in 10.0 mi South 11.5 mph 18.4 mph N/A   Overcast
3:55 PM 73.4 °F 60.8 °F 65% 29.80 in 10.0 mi SSE 6.9 mph 16.1 mph N/A   Overcast
4:15 PM 73.4 °F 60.8 °F 65% 29.79 in 10.0 mi South 9.2 mph - N/A   Mostly Cloudy
4:35 PM 73.4 °F 60.8 °F 65% 29.79 in 10.0 mi South 9.2 mph 16.1 mph N/A   Scattered Clouds
4:55 PM 73.4 °F 60.8 °F 65% 29.78 in 10.0 mi SSE 5.8 mph - N/A   Scattered Clouds
5:15 PM 73.4 °F 60.8 °F 65% 29.78 in 10.0 mi SSE 8.1 mph - N/A   Scattered Clouds
5:35 PM 73.4 °F 60.8 °F 65% 29.77 in 10.0 mi SSE 4.6 mph - N/A   Partly Cloudy
5:55 PM 73.4 °F 60.8 °F 65% 29.77 in 9.0 mi SSE 5.8 mph - N/A   Partly Cloudy
6:15 PM 71.6 °F 60.8 °F 69% 29.76 in 10.0 mi SSE 4.6 mph - N/A   Clear
6:35 PM 71.6 °F 60.8 °F 69% 29.75 in 10.0 mi SE 4.6 mph - N/A   Clear
6:55 PM 69.8 °F 60.8 °F 73% 29.75 in 10.0 mi SE 3.5 mph - N/A   Clear
7:15 PM 69.8 °F 60.8 °F 73% 29.75 in 10.0 mi SE 4.6 mph - N/A   Clear
7:35 PM 71.6 °F 60.8 °F 69% 29.74 in 9.0 mi SSE 8.1 mph - N/A   Clear
7:55 PM 71.6 °F 60.8 °F 69% 29.74 in 8.0 mi SSE 6.9 mph 16.1 mph N/A   Clear
8:15 PM 71.6 °F 62.6 °F 73% 29.74 in 8.0 mi SSE 9.2 mph - N/A   Clear
8:35 PM 71.6 °F 62.6 °F 73% 29.74 in 9.0 mi SSE 10.4 mph - N/A   Clear
8:55 PM 71.6 °F 62.6 °F 73% 29.74 in 9.0 mi South 10.4 mph 17.3 mph N/A   Clear
9:15 PM 71.6 °F 62.6 °F 73% 29.74 in 10.0 mi South 11.5 mph 18.4 mph N/A   Clear
9:35 PM 71.6 °F 62.6 °F 73% 29.74 in 10.0 mi South 13.8 mph 20.7 mph N/A   Clear
9:55 PM 71.6 °F 62.6 °F 73% 29.74 in 10.0 mi South 15.0 mph 23.0 mph N/A   Partly Cloudy
10:15 PM 69.8 °F 62.6 °F 78% 29.74 in 10.0 mi South 10.4 mph 19.6 mph N/A   Scattered Clouds
10:35 PM 69.8 °F 62.6 °F 78% 29.74 in 10.0 mi South 13.8 mph 25.3 mph N/A   Scattered Clouds
10:55 PM 69.8 °F 62.6 °F 78% 29.74 in 10.0 mi South 11.5 mph 23.0 mph N/A   Mostly Cloudy
11:15 PM 69.8 °F 62.6 °F 78% 29.73 in 10.0 mi South 9.2 mph - N/A   Mostly Cloudy
11:35 PM 68.0 °F 62.6 °F 83% 29.73 in 10.0 mi South 10.4 mph 18.4 mph N/A   Mostly Cloudy
11:55 PM 68.0 °F 62.6 °F 83% 29.72 in 10.0 mi SSE 8.1 mph 17.3 mph N/A   Scattered Clouds